Location: Newark
(26.0814°N, 97.8289°W)
Time: 11:14:18
(UTC+00:00)

LightSail 2 - Pass Details

Date: 26 January 2020
Orbit: 699 x 722 km, 24.0° (Epoch: 22 February)

Event Time Altitude Azimuth Distance (km) Brightness Sun altitude
Rises 01:30:13 0° 272° (W) 3,077 9.9 -18.3°
Reaches altitude 10° 01:32:41 10° 267° (W) 2,163 8.9 -18.8°
Maximum altitude 01:37:38 51° 192° (SSW) 885 5.7 -19.9°
Enters shadow 01:40:01 28° 131° (SE) 1,302 6.2 -20.4°
